FW1468 Weather Reports


time (UTC)temp
C
wind
direction
speed
KPH
gust
KPH
rain 1hr
cm
rain 24hr
cm
rain mn
cm
humidity
%
barometer
mb
20191018011531 10 63 1.6 8.0 0.00 3.12 0.89 79 997.7
20191018010048 10 87 0.0 4.8 0.00 3.12 0.89 78 997.3
20191018004551 10 80 0.0 4.8 0.00 3.35 0.89 78 997.1
20191018003048 10 87 0.0 6.4 0.00 3.35 0.89 77 996.6
20191018001604 10 168 1.6 6.4 0.00 3.35 0.89 77 996.4
20191018000044 10 82 0.0 3.2 0.00 3.35 0.89 76 996.3
20191017234536 11 175 0.0 4.8 0.00 3.86 0.89 75 996.0
20191017233010 11 341 0.0 4.8 0.00 3.86 0.89 75 995.7
20191017231547 11 75 0.0 6.4 0.00 3.86 0.89 75 995.4
20191017230031 10 118 0.0 1.6 0.00 3.86 0.89 76 995.0
20191017224505 11 274 0.0 8.0 0.00 4.17 0.89 75 994.7
20191017223010 11 170 0.0 4.8 0.00 4.17 0.89 75 994.4
20191017221653 11 293 1.6 6.4 0.00 4.17 0.89 75 994.0
20191017214702 11 240 1.6 6.4 0.00 4.47 0.89 76 993.5
20191017213122 11 23 0.0 8.0 0.00 4.47 0.89 76 993.2
20191017211644 11 35 0.0 8.0 0.00 4.47 0.89 77 993.0
20191017210159 11 108 3.2 14.5 0.00 4.47 0.89 77 992.7
20191017204647 11 64 3.2 14.5 0.00 4.93 0.89 78 992.4
20191017203128 10 11 1.6 11.3 0.00 4.93 0.89 80 992.3
20191017201636 10 104 1.6 11.3 0.00 4.93 0.89 81 992.2
20191017200110 10 348 0.0 9.7 0.00 4.93 0.89 83 992.1
20191017193139 10 2 3.2 9.7 0.00 5.00 0.89 82 991.5
20191017191800 11 85 4.8 14.5 0.00 5.00 0.89 78 991.2
20191017190107 11 44 4.8 22.5 0.00 5.00 0.89 73 990.7
20191017184617 11 292 6.4 22.5 0.00 5.00 0.89 72 990.2
20191017183111 11 336 4.8 17.7 0.00 5.00 0.89 71 989.9
20191017181612 11 68 4.8 22.5 0.00 5.00 0.89 71 989.7
20191017180045 11 240 8.0 22.5 0.00 5.00 0.89 69 989.5
20191017174600 12 330 4.8 22.5 0.00 5.00 0.89 70 988.7
20191017173131 12 103 6.4 17.7 0.00 5.00 0.89 69 988.4
20191017171546 12 213 3.2 24.1 0.00 5.00 0.89 73 988.1
20191017170102 11 78 4.8 17.7 0.00 5.00 0.89 74 987.9
20191017164526 11 129 4.8 24.1 0.00 5.00 0.89 73 987.7
20191017163041 11 196 4.8 19.3 0.00 5.00 0.89 75 987.7
20191017161535 11 198 3.2 29.0 0.00 5.00 0.89 75 988.0
20191017160011 11 191 3.2 12.9 0.00 5.00 0.89 77 988.0
20191017154517 10 21 0.0 12.9 0.00 5.00 0.89 77 987.9
20191017153012 10 109 1.6 14.5 0.00 5.00 0.89 78 987.9
20191017151509 10 99 1.6 19.3 0.00 5.00 0.89 78 987.8
20191017150016 10 164 3.2 14.5 0.00 5.00 0.89 79 987.8
20191017144508 10 175 3.2 9.7 0.00 5.00 0.89 79 987.7
20191017143018 10 187 1.6 12.9 0.00 5.00 0.89 79 987.7
20191017141535 10 172 4.8 11.3 0.00 5.00 0.89 79 987.6
20191017140008 10 147 1.6 9.7 0.00 5.00 0.89 79 987.7
20191017134509 10 105 3.2 12.9 0.00 5.00 0.89 80 987.7
20191017133010 10 304 1.6 11.3 0.00 5.00 0.89 80 987.9
20191017131534 9 158 3.2 11.3 0.00 5.00 0.89 80 988.0
20191017130017 9 348 1.6 12.9 0.00 5.00 0.89 79 988.0
20191017124520 9 150 1.6 6.4 0.00 5.00 0.89 79 988.1
20191017121521 8 90 0.0 4.8 0.00 5.00 0.89 81 987.9
20191017120004 8 165 3.2 8.0 0.00 5.00 0.89 81 987.7
20191017114508 8 137 0.0 3.2 0.00 5.00 0.89 83 987.6
20191017113341 8 120 1.6 12.9 0.00 5.00 0.89 83 987.4
20191017111708 8 104 0.0 14.5 0.00 5.00 0.89 83 987.2
20191017110222 8 270 1.6 11.3 0.00 5.00 0.89 85 987.0
20191017104830 8 58 3.2 16.1 0.00 5.00 0.89 87 987.0
20191017103231 8 152 1.6 8.0 0.00 5.00 0.89 91 986.9
20191017101627 7 122 1.6 3.2 0.00 5.00 0.89 94 986.8
20191017100126 7 140 0.0 1.6 0.00 5.00 0.89 94 986.8
20191017094642 7 147 0.0 1.6 0.00 5.00 0.89 93 986.8
20191017093127 7 78 0.0 1.6 0.00 5.00 0.89 93 987.2
20191017091607 7 156 0.0 1.6 0.00 5.00 0.89 92 987.3
20191017090152 8 113 0.0 8.0 0.00 5.00 0.89 91 987.5
20191017084644 8 99 1.6 8.0 0.00 5.00 0.89 92 987.7
20191017083133 7 138 4.8 11.3 0.00 5.00 0.89 95 987.6
20191017081555 7 90 1.6 8.0 0.03 5.00 0.89 96 987.6
20191017080100 7 352 1.6 6.4 0.03 5.00 0.89 96 987.5
20191017074604 7 352 1.6 4.8 0.05 5.00 0.89 96 987.3
20191017073134 8 90 0.0 4.8 0.05 5.00 0.89 96 987.5
20191017071706 8 353 1.6 8.0 0.05 4.98 0.86 96 987.5
20191017070056 8 91 0.0 4.8 0.05 4.98 0.86 96 987.3
20191017064631 8 237 0.0 1.6 0.03 4.95 0.84 96 987.2
20191017063115 8 314 1.6 8.0 0.08 4.95 0.84 96 987.2
20191017060045 8 254 1.6 8.0 0.18 4.93 0.81 96 988.3
20191017054556 8 271 0.0 6.4 0.33 4.90 0.79 96 988.5
20191017053056 8 325 4.8 14.5 0.41 4.88 0.76 96 988.7
20191017051557 8 111 1.6 17.7 0.51 4.83 0.71 96 988.8
20191017050105 8 343 3.2 16.1 0.58 4.75 0.64 95 988.8
20191017044525 9 49 4.8 14.5 0.56 4.57 0.46 95 988.4
20191017043028 11 338 3.2 19.3 0.61 4.47 0.36 97 988.1
20191017041517 11 322 6.4 19.3 0.61 4.29 0.18 97 987.5
20191017040019 11 305 4.8 17.7 0.94 4.17 0.05 97 987.8
20191017034516 11 277 6.4 25.7 1.42 4.01 4.01 97 988.0
20191017033112 11 266 8.0 19.3 1.50 3.86 3.86 97 988.2
20191017031545 11 13 8.0 17.7 1.45 3.66 3.66 96 988.6
20191017030013 11 317 6.4 14.5 1.14 3.20 3.20 96 988.7
20191017024525 12 330 1.6 11.3 0.58 2.59 2.59 96 988.6
20191017023028 12 270 4.8 11.3 0.38 2.34 2.34 96 988.1
20191017021528 12 274 4.8 12.9 0.28 2.18 2.18 95 988.9
20191017020024 12 250 3.2 8.0 0.18 2.06 2.06 95 989.2
20191017014830 12 274 1.6 4.8 0.13 2.01 2.01 95 989.6
20191017013208 12 185 0.0 11.3 0.10 1.96 1.96 94 989.6